Other Public Products
Issued by NWS Charleston, SC

Current Version | Previous Version | Graphics & Text | Print | Product List | Glossary On
Versions: 1 2 3 4 5 6 7 8 9 10 11 12 13 14 15 16 17 18 19 20 21 22 23 24 25 26 27 28 29 30 31 32 33 34 35 36 37 38 39 40 41 42 43 44 45 46 47 48 49 50
554
FPUS82 KCHS 222228
OPUCHS

TEST...KCHS/KSAV Gateway Observations...TEST
National Weather Service Charleston SC
600 PM EDT SAT JUL 22 2017

NOTE: "fair" indicates few or no clouds below 12,000 feet with no
significant weather and/or obstructions to visibility.

SCZ050-WAZ558-NCZ071-TXZ119-213-PAZ071-DCZ001-FLZ074-172-MI076-
NYZ176-178-MAZ016-IL014-TNZ027-NJZ106-GAZ044-MD014-222300-

...Gateway Observations for Charleston International...

CITY           SKY/WX    TMP DP  RH WIND       PRES   REMARKS
Chas Airport   MOSUNNY   89  74  60 S17       29.95R HX  98
Seattle        MOSUNNY   82  60  47 SW8       30.14F
Charlotte      MOSUNNY   95  71  45 W8        29.91S HX 102
Dallas DFW     MOSUNNY   99  70  38 S9        29.84F HX 106
Dallas Love    MOSUNNY   98  67  36 S10       29.85F HX 102
Philladelphia  CLOUDY    90  69  50 S13       29.73F THUNDER HX  94
Wash National  TSTM      76  72  87 W10G20    29.84S
Baltimore      CLOUDY    78  72  81 W6        29.78F
Miami          CLOUDY    87  74  64 SE7       30.05R HX  95
Detroit        PTSUNNY   86  69  56 NW14      29.73S HX  90
Newark         CLOUDY    86  64  47 SE5       29.76F
Laguardia      PTSUNNY   87  64  46 VRB5      29.76F
J F K          CLOUDY    83  67  58 SE9       29.79S
Boston Logan   CLOUDY    76  65  68 E5        29.79F
Ft. Lauderdale CLOUDY    86  73  65 SE6       30.04R HX  93
Chicago O`Hare PTSUNNY   86  70  58 NW5       29.80S HX  90
Chicago Midway PTSUNNY   84  70  62 VRB3      29.79F
Houston Bush   CLOUDY    91  74  57 SE10      29.91R THUNDER HX 100
Houston Hobby  CLOUDY    92  73  53 S8        29.91F HX 100
Nashville      MOSUNNY   96  71  44 VRB6      29.88S HX 103
Atlanta        PTSUNNY   80  74  81 W6        29.98S

$$

GAZ044-118-TXZ119-213-NCZ071-DCZ001-MDZ014-506-PAZ021-071-NJZ106-
NYZ176-178-MAZ106-OHZ011-021-055-MIZ076-KYZ091-ILZ014-INZ047-
MNZ060-ONZ431-222300-

...Gateway Observations for Savannah International...

CITY           SKY/WX    TMP DP  RH WIND       PRES   REMARKS
Savannah Arpt  MOSUNNY   91  70  49 S15       29.96S HX  96
Atlanta        PTSUNNY   80  74  81 W6        29.98S
Charlotte      MOSUNNY   95  71  45 W8        29.91S HX 102
Dallas DFW     MOSUNNY   99  70  38 S9        29.84F HX 106
Houston Bush   CLOUDY    91  74  57 SE10      29.91R THUNDER HX 100
Wash National  TSTM      76  72  87 W10G20    29.84S
Wash Dulles    LGT RAIN  73  68  84 W9        29.82F
Baltimore      CLOUDY    78  72  81 W6        29.78F
Philadelphia   CLOUDY    90  69  50 S13       29.73F THUNDER HX  94
Newark         CLOUDY    86  64  47 SE5       29.76F
Laguardia      PTSUNNY   87  64  46 VRB5      29.76F
J F K          CLOUDY    83  67  58 SE9       29.79S
Boston         CLOUDY    76  65  68 E5        29.79F
Pittsburg      LGT RAIN  74  73  97 S5        29.80F
Akron          MOSUNNY   80  70  71 W5        29.79F
Cleveland      PTSUNNY   84  74  71 W9        29.77F HX  91
Cincinnati     PTSUNNY   89  78  70 W12       29.82F HX 103
Columbus       CLOUDY    83  77  82 W6        29.78R HX  91
Detroit        PTSUNNY   86  69  56 NW14      29.73S HX  90
Chicago O`Hare PTSUNNY   86  70  58 NW5       29.80S HX  90
Minneapolis    PTSUNNY   90  63  40 NW13      29.80S HX  91
Indianapolis   CLOUDY    86  72  62 NW9       29.82S HX  92
Toronto Canada PTSUNNY   72  61  68 E7        29.79F

$$




USA.gov is the U.S. government's official web portal to all federal, state and local government web resources and services.